Terminal Aerodrome Forecast
Issued by NWS

Home | Current Version | Previous Version | Text Only | Print | Product List | Glossary On
Versions: 1 2 3 4 5 6 7 8 9 10 11 12 13 14 15 16 17 18 19 20 21 22 23 24 25 26 27 28 29 30 31 32 33 34 35 36 37 38 39 40 41 42 43 44 45 46 47 48 49 50
000
FTUS41 KCTP 212142 AAB
TAFUNV
TAF AMD
KUNV 212142Z 2122/2218 VRB04KT 4SM -SHRA VCTS SCT025 OVC040CB
      TEMPO 2122/2124 3SM -SHRA OVC012
     FM220100 33007KT 5SM -SHRA BR OVC010
     FM220600 34008KT 2SM -DZ BR OVC005=

USA.gov is the U.S. government's official web portal to all federal, state and local government web resources and services.